STARLINK-34749

Last updated on Mon Oct 20 2025 00:02:05 GMT+0000 (Coordinated Universal Time)

1 65675U 25211Z 25292.11083419 .00093683 00000+0 17001-2 0 9996 2 65675 97.6012 334.2793 0001787 95.0879 265.0576 15.49249356 5721

Satellite not in orbit

STARLINK-34749